Regional Weather Roundup
Issued by NWS

Home | Current Version | Previous Version | Graphics & Text | Print | Product List | Glossary Off
Versions: 1 2 3 4 5 6 7 8 9 10 11 12 13 14 15 16 17 18 19 20 21 22 23 24 25 26 27 28 29 30 31 32 33 34 35 36 37 38 39 40 41 42 43 44 45 46 47 48 49 50

000
ASUS43 KTOP 191459
RWRKS

WEATHER ROUNDUP FOR KANSAS
NATIONAL WEATHER SERVICE GOODLAND KS
1000 AM CDT FRI SEP 19 2014

NOTE:  "FAIR" INDICATES FEW OR NO CLOUDS BELOW 12,000 FEET WITH NO
SIGNIFICANT WEATHER AND/OR OBSTRUCTIONS TO VISIBILITY.

KSZ001>006-013>018-027>032-041>047-191600-
NORTHWEST KANSAS

CITY           SKY/WX    TMP DP  RH WIND       PRES   REMARKS
GOODLAND       SUNNY     72  60  66 SW16      29.96S
HAYS           SUNNY     72  61  68 SW13      29.97S
HILL CITY      SUNNY     74  63  68 SW10      29.94S
RUSSELL        SUNNY     74  62  66 S16       29.95S
$$

KSZ061>065-074>080-084>089-191600-
SOUTHWEST KANSAS

CITY           SKY/WX    TMP DP  RH WIND       PRES   REMARKS
DODGE CITY     SUNNY     73  61  65 S13G22    30.00S
ELKHART          N/A     69  59  70 S9          N/A
GARDEN CITY    SUNNY     71  62  73 SW14G23   29.99S
GREAT BEND     SUNNY     73  63  68 SW9       29.98S
LIBERAL        SUNNY     72  63  73 SW16      30.03S
PRATT          SUNNY     73  63  68 SW9       30.00S
$$

KSZ066>073-081>083-090>101-191600-
SOUTHEAST KANSAS

CITY           SKY/WX    TMP DP  RH WIND       PRES   REMARKS
CHANUTE        CLOUDY    67  66  97 S9        30.04R FOG
COFFEYVILLE    CLOUDY    67  66  97 S7        30.03R FOG
HUTCHINSON     SUNNY     73  65  75 S7        29.99S
NEWTON         SUNNY     72  64  78 S10       30.02S
PARSONS        CLOUDY    67  66  97 S6        30.04R FOG
WICHITA INTL   MOSUNNY   74  65  73 S10       30.00R
WICHITA JABRA  SUNNY     74  66  76 S9        30.00S
WINFIELD       CLOUDY    70  68  93 SE7       30.02R
$$

KSZ007>012-019>026-033>040-048>060-102>105-191600-
NORTHEAST KANSAS

CITY           SKY/WX    TMP DP  RH WIND       PRES   REMARKS
CONCORDIA      SUNNY     72  66  81 S10       29.96R
EMPORIA        FOG       65  65 100 S9        30.02R VSB 1/2
LAWRENCE       FOG       64  63  96 S9        30.03S VSB 1
MANHATTAN      MOSUNNY   74  66  76 S8        29.98S
OLATHE IND     FOG       63  63 100 S12       30.04S VSB 3/4
OLATHE EXE     FOG       64  63  96 S9        30.03S VSB 1/2
SALINA         SUNNY     73  66  78 S9        29.98S
TOPEKA BILLARD CLOUDY    66  65  96 S7        30.02S FOG
TOPEKA FORBES  CLOUDY    65  64  97 S8        30.02S FOG
$$



USA.gov is the U.S. government's official web portal to all federal, state and local government web resources and services.